Location: Barrio Las Umbrías
(40.4173°N, 4.8685°W)
Time: 12:40:20
(UTC+00:00)

Meteor 1-19 Rocket - Pass Details

Date: 17 August 2022
Orbit: 810 x 924 km, 81.2° (Epoch: 27 September)

Event Time Altitude Azimuth Distance (km) Brightness Sun altitude
Rises 21:36:36 0° 349° (N) 3,422 8.2 -23.9°
Reaches altitude 10° 21:39:03 10° 349° (NNW) 2,467 7.4 -24.2°
Maximum altitude 21:44:37 82° 263° (W) 838 4.1 -25.0°
Enters shadow 21:45:39 60° 186° (S) 939 4.2 -25.1°
